[[{"header":{"parameterUnit":"m.s-1","parameterCategory":1,"la1":30.2991,"la2":30.254,"lo1":-89.0895,"lo2":-89.0444,"dy":0.0017,"dx":0.0017,"nx":28,"ny":28,"refTime":"2023-09-16T09:00:00:Z","depth":0,"parameterNumber":2,"parameterNumberName":"U-component_of_WINDS"},"data":[0,0,0,0,0,0,0,0,0,0,0,0,0,0,0,0,0,0,0,0,0,0,0,0,0,0,0,0,0,0,0,0,0,0,0,0,0,0,0,0,0,0,0,0,0,0,0,0,0,0,0,0,0,0,0,0,0,0,1.4222,1.4223,0,1.425,1.425,1.425,1.4256,1.4256,1.4256,1.4256,1.4285,1.4286,1.4287,0,0,0,0,0,0,0,0,0,0,0,0,0,1.4178,1.4178,1.4222,1.4223,1.4223,1.425,1.425,1.4251,1.4257,1.4256,1.4256,1.4256,1.4285,1.4286,1.4287,0,0,0,0,0,0,0,0,0,0,0,0,0,1.42,1.4179,1.4222,1.4229,1.423,1.425,1.425,1.4251,1.4257,1.4256,1.4256,1.4256,1.4284,1.4286,1.4287,1.4302,0,0,1.4292,1.4292,0,0,0,0,0,0,0,0,1.4199,1.4202,1.4228,1.4229,1.423,1.4249,1.4245,1.4268,1.4257,1.4247,1.4256,1.4256,1.4274,1.4276,1.4282,1.4304,1.4305,1.4292,1.4293,1.4293,1.4294,0,0,0,0,0,0,0,1.4197,1.4201,1.4233,1.4228,1.4229,1.4232,1.4235,1.4249,1.4261,1.4247,1.4248,1.4251,1.4274,1.428,1.4282,1.4305,1.4292,1.4293,1.4294,1.4294,1.4344,1.4344,0,0,0,0,0,0,1.4194,1.4199,1.4232,1.4234,1.4213,1.4233,1.4236,1.4243,1.4261,1.4264,1.4251,1.4251,1.4278,1.4281,1.4283,1.4304,1.4293,1.4295,1.4295,1.4344,1.4344,1.4345,0,0,0,0,0,0,1.4193,1.4197,1.4231,1.4217,1.4221,1.4234,1.4242,1.4244,1.425,1.4264,1.4267,1.4255,1.4278,1.4281,1.4298,1.4305,1.4295,1.4297,1.4343,1.4344,1.4344,1.4344,0,0,0,0,0,0,1.4192,1.4197,1.4202,1.4217,1.4222,1.4244,1.4242,1.4245,1.4253,1.4253,1.4269,1.4271,1.4278,1.4296,1.43,1.4307,1.4298,1.4342,1.4343,1.4344,1.4343,1.4344,1.4345,0,0,0,0,0,1.419,1.42,1.4202,1.4206,1.4228,1.4245,1.4248,1.4255,1.4253,1.4259,1.4268,1.427,1.4304,1.4298,1.4302,1.4309,1.4342,1.4343,1.4344,1.4343,1.4344,1.4345,0,0,0,0,0,0,1.4185,1.4202,1.4204,1.4219,1.423,1.4246,1.4253,1.4256,1.4268,1.4268,1.4277,1.4281,1.4298,1.4305,1.4298,1.4327,1.4323,1.4325,1.4321,1.4322,1.4323,1.4321,1.4299,0,0,0,0,0,1.4185,1.4196,1.4211,1.4223,1.4228,1.424,1.4247,1.4252,1.4265,1.4269,1.428,1.4292,1.4306,1.4314,1.4327,1.4345,1.435,1.4353,1.4354,1.4354,1.4356,1.4368,1.437,1.4348,1.4348,1.4348,0,0,1.4186,1.4197,1.4203,1.4222,1.4231,1.4244,1.4244,1.4256,1.4266,1.4271,1.4288,1.4297,1.4311,1.4329,1.4337,1.4336,1.4363,1.4356,1.4356,1.4357,1.4369,1.4372,1.4373,1.4349,1.4349,1.4348,0,0,1.4195,1.4203,1.4215,1.4225,1.424,1.4248,1.425,1.4266,1.4272,1.4289,1.4294,1.4306,1.4329,1.434,1.4348,1.4364,1.4368,1.4369,1.4374,1.4386,1.4387,1.4389,1.4396,1.4399,1.437,1.437,1.437,0,1.4194,1.4212,1.422,1.4233,1.4242,1.4249,1.4262,1.4271,1.4289,1.4296,1.4294,1.4325,1.4335,1.4356,1.436,1.4367,1.4372,1.4366,1.4386,1.4388,1.439,1.4397,1.4399,1.437,1.437,1.437,1.437,0,1.4212,1.4224,1.4232,1.425,1.426,1.4273,1.4285,1.4294,1.4299,1.4308,1.4327,1.434,1.4356,1.4362,1.4367,1.4385,1.4384,1.4384,1.4381,1.4392,1.4399,1.4401,1.437,1.437,1.437,1.437,0,0,1.4215,1.4239,1.4242,1.4252,1.427,1.428,1.4295,1.4311,1.432,1.4333,1.4347,1.4367,1.4368,1.4378,1.4385,1.4395,1.4409,1.4394,1.4395,1.4398,1.4433,1.4433,1.4436,1.4412,1.4412,1.4413,1.4432,0,1.4226,1.4251,1.426,1.4281,1.4294,1.4302,1.4315,1.4328,1.4338,1.4351,1.4362,1.4377,1.4376,1.4383,1.4394,1.4405,1.4417,1.4404,1.4426,1.4426,1.4422,1.4439,1.4439,1.4456,1.4435,1.4435,1.4436,0,1.4241,1.4256,1.4278,1.4297,1.4303,1.4314,1.4332,1.4344,1.4361,1.4367,1.4379,1.4386,1.4403,1.4399,1.4424,1.4416,1.4426,1.4433,1.4434,1.4436,1.4431,1.4443,1.4462,1.4465,1.444,1.4439,1.4439,0,1.4243,1.4268,1.4285,1.4293,1.4315,1.4323,1.4333,1.4349,1.4359,1.4375,1.4383,1.44,1.441,1.4425,1.4437,1.4432,1.4462,1.4458,1.4469,1.4468,1.4474,1.4473,1.4495,1.4479,1.4479,1.4479,1.4479,0,1.4255,1.4268,1.4287,1.4297,1.4314,1.4325,1.4342,1.4352,1.4367,1.4381,1.4389,1.4402,1.4417,1.4433,1.4443,1.4463,1.4467,1.4474,1.4477,1.4474,1.4473,1.448,1.4479,1.448,1.448,1.448,1.448,0,1.4259,1.4271,1.4291,1.4311,1.4317,1.4328,1.4346,1.4357,1.4368,1.4386,1.4391,1.4408,1.4427,1.4441,1.4466,1.4473,1.4495,1.4497,1.4489,1.4491,1.4501,1.45,1.4528,1.4534,1.4514,1.4514,1.4514,0,1.4265,1.4276,1.4298,1.4308,1.4318,1.4333,1.4345,1.4358,1.4369,1.4391,1.44,1.442,1.4437,1.4468,1.4483,1.4503,1.4506,1.4515,1.4509,1.4507,1.4508,1.4507,1.4509,1.4516,1.4516,1.4516,1.4516,0,1.4275,1.4282,1.4297,1.4316,1.4329,1.4344,1.436,1.4368,1.4384,1.4397,1.4417,1.443,1.4457,1.4477,1.4499,1.4511,1.4517,1.4518,1.4522,1.4519,1.4514,1.4518,1.4493,1.4517,1.4517,1.4517,1.4517,1.4517,1.4281,1.4292,1.431,1.4328,1.4342,1.4356,1.4369,1.4382,1.4399,1.4421,1.4429,1.445,1.4469,1.4499,1.4512,1.453,1.4529,1.4534,1.4536,1.4537,1.4537,1.4511,1.4534,1.4534,1.4534,1.4534,1.4534,0,1.4293,1.4306,1.4322,1.4344,1.4359,1.4364,1.4382,1.4394,1.4413,1.443,1.4447,1.4472,1.4492,1.4511,1.4533,1.4544,1.4548,1.4549,1.4549,1.4552,1.4536,1.4531,1.4546,1.4546,1.4546,1.4546,1.4546,1.4546,1.4301,1.432,1.433,1.4357,1.437,1.439,1.4401,1.4416,1.443,1.4457,1.4474,1.4486,1.4505,1.4529,1.4549,1.4554,1.4562,1.4564,1.457,1.4554,1.4553,1.4551,1.4547,1.4565,1.4565,1.4585,1.4585,1.4585]},{"header":{"parameterUnit":"m.s-1","parameterCategory":1,"la1":30.2991,"la2":30.254,"lo1":-89.0895,"lo2":-89.0444,"dy":0.0017,"dx":0.0017,"nx":28,"ny":28,"refTime":"2023-09-16T09:00:00:Z","depth":0,"parameterNumber":3,"parameterNumberName":"V-component_of_WINDS"},"data":[0,0,0,0,0,0,0,0,0,0,0,0,0,0,0,0,0,0,0,0,0,0,0,0,0,0,0,0,0,0,0,0,0,0,0,0,0,0,0,0,0,0,0,0,0,0,0,0,0,0,0,0,0,0,0,0,0,0,-2.9276,-2.9275,0,-2.9219,-2.9218,-2.9218,-2.9254,-2.9256,-2.9257,-2.9259,-2.9195,-2.9192,-2.9189,0,0,0,0,0,0,0,0,0,0,0,0,0,-2.941,-2.9408,-2.9276,-2.9275,-2.9274,-2.9219,-2.9218,-2.9218,-2.9254,-2.9256,-2.9258,-2.926,-2.9196,-2.9192,-2.9188,0,0,0,0,0,0,0,0,0,0,0,0,0,-2.9352,-2.9407,-2.9276,-2.9286,-2.9286,-2.9219,-2.9218,-2.9217,-2.9253,-2.9256,-2.9258,-2.9261,-2.9198,-2.9193,-2.9188,-2.9106,0,0,-2.9173,-2.9171,0,0,0,0,0,0,0,0,-2.9356,-2.9347,-2.9285,-2.9285,-2.9285,-2.9246,-2.9243,-2.918,-2.9252,-2.9265,-2.9259,-2.9262,-2.921,-2.9204,-2.9188,-2.9104,-2.9101,-2.9172,-2.9169,-2.9167,-2.9166,0,0,0,0,0,0,0,-2.936,-2.935,-2.9253,-2.9284,-2.9284,-2.9292,-2.9286,-2.9231,-2.9224,-2.9264,-2.9267,-2.926,-2.921,-2.9192,-2.9186,-2.91,-2.9173,-2.9168,-2.9165,-2.9163,-2.8946,-2.8944,0,0,0,0,0,0,-2.9364,-2.9353,-2.9255,-2.9251,-2.9328,-2.9287,-2.9281,-2.9256,-2.9225,-2.9222,-2.9258,-2.9262,-2.9199,-2.9192,-2.9184,-2.9087,-2.9167,-2.9163,-2.916,-2.8949,-2.8946,-2.8943,0,0,0,0,0,0,-2.9366,-2.9354,-2.9257,-2.9303,-2.9291,-2.9282,-2.9254,-2.9254,-2.9236,-2.922,-2.9218,-2.9241,-2.9201,-2.9191,-2.9126,-2.9085,-2.9161,-2.9156,-2.8953,-2.8948,-2.8944,-2.8891,0,0,0,0,0,0,-2.937,-2.9355,-2.9325,-2.9302,-2.9289,-2.9201,-2.9251,-2.9251,-2.9228,-2.9232,-2.9203,-2.9201,-2.9202,-2.9133,-2.9121,-2.908,-2.9152,-2.8956,-2.8951,-2.8946,-2.8896,-2.8885,-2.8876,0,0,0,0,0,-2.9375,-2.9311,-2.9323,-2.9311,-2.9251,-2.9199,-2.9191,-2.9195,-2.9224,-2.9193,-2.9183,-2.9202,-2.9092,-2.9126,-2.9113,-2.9069,-2.8959,-2.8952,-2.8946,-2.8901,-2.8887,-2.8876,0,0,0,0,0,0,-2.9327,-2.9308,-2.9322,-2.9249,-2.9225,-2.9205,-2.9166,-2.9181,-2.9147,-2.9152,-2.9158,-2.9151,-2.9083,-2.907,-2.9108,-2.8989,-2.903,-2.902,-2.9,-2.8987,-2.8977,-2.8981,-2.9148,0,0,0,0,0,-2.9308,-2.9269,-2.9254,-2.9191,-2.9179,-2.9174,-2.9152,-2.9157,-2.9132,-2.9122,-2.9107,-2.9081,-2.904,-2.9013,-2.8975,-2.8895,-2.8889,-2.8859,-2.8849,-2.8841,-2.8832,-2.8788,-2.8775,-2.8922,-2.8922,-2.8922,0,0,-2.9268,-2.9253,-2.9228,-2.9181,-2.9164,-2.9121,-2.9165,-2.9119,-2.9087,-2.9114,-2.9052,-2.9041,-2.9011,-2.8939,-2.8906,-2.8925,-2.879,-2.8833,-2.8826,-2.8822,-2.878,-2.8766,-2.8754,-2.8918,-2.8919,-2.8919,0,0,-2.9174,-2.9159,-2.9105,-2.9088,-2.9061,-2.9059,-2.9046,-2.9024,-2.9018,-2.8956,-2.8976,-2.8938,-2.8868,-2.8847,-2.8827,-2.8727,-2.8742,-2.8714,-2.866,-2.8618,-2.8606,-2.8596,-2.8559,-2.8546,-2.8706,-2.8706,-2.8706,0,-2.9127,-2.9066,-2.9075,-2.9027,-2.9006,-2.9032,-2.8976,-2.8958,-2.892,-2.8904,-2.8927,-2.8841,-2.8823,-2.8746,-2.8722,-2.8705,-2.8689,-2.8716,-2.8608,-2.8597,-2.8588,-2.8553,-2.8539,-2.8702,-2.8703,-2.8703,-2.8703,0,-2.9009,-2.8966,-2.8926,-2.8891,-2.8865,-2.8813,-2.8814,-2.8786,-2.8795,-2.879,-2.8727,-2.8707,-2.8665,-2.8648,-2.8655,-2.8571,-2.8584,-2.8608,-2.8648,-2.857,-2.8537,-2.8524,-2.8697,-2.8699,-2.87,-2.8701,0,0,-2.888,-2.8853,-2.8838,-2.8823,-2.8797,-2.8763,-2.8713,-2.8674,-2.865,-2.8623,-2.858,-2.8522,-2.8544,-2.8521,-2.8526,-2.8489,-2.841,-2.8517,-2.8517,-2.8497,-2.8316,-2.8298,-2.8282,-2.8422,-2.8419,-2.8417,-2.8318,0,-2.8784,-2.8698,-2.8706,-2.8623,-2.8583,-2.8609,-2.8565,-2.8543,-2.8538,-2.8502,-2.8495,-2.8453,-2.8486,-2.8473,-2.8437,-2.8428,-2.8374,-2.8435,-2.838,-2.8378,-2.8385,-2.8265,-2.8245,-2.8152,-2.8306,-2.8304,-2.8302,0,-2.8659,-2.863,-2.8545,-2.8526,-2.8509,-2.847,-2.8436,-2.8402,-2.8378,-2.8376,-2.8352,-2.8364,-2.8312,-2.8356,-2.8284,-2.8325,-2.8303,-2.8295,-2.8292,-2.8285,-2.8334,-2.8254,-2.8123,-2.8108,-2.8282,-2.8284,-2.8285,0,-2.8572,-2.8512,-2.8453,-2.844,-2.8416,-2.8388,-2.8377,-2.8356,-2.8332,-2.8302,-2.8287,-2.825,-2.823,-2.8201,-2.8202,-2.8234,-2.8128,-2.8172,-2.8124,-2.8124,-2.8099,-2.81,-2.7961,-2.8088,-2.8088,-2.8088,-2.8088,0,-2.8462,-2.8409,-2.8414,-2.8378,-2.8318,-2.8328,-2.8268,-2.826,-2.8241,-2.8203,-2.8222,-2.8185,-2.819,-2.8152,-2.8153,-2.8093,-2.8084,-2.808,-2.808,-2.8077,-2.8077,-2.8061,-2.8067,-2.8084,-2.8085,-2.8086,-2.8087,0,-2.8354,-2.8356,-2.8294,-2.8278,-2.8273,-2.8229,-2.8215,-2.818,-2.8177,-2.8128,-2.8117,-2.8112,-2.8069,-2.8068,-2.8018,-2.8019,-2.7945,-2.7953,-2.7953,-2.7954,-2.7905,-2.7909,-2.775,-2.7729,-2.7871,-2.7869,-2.7868,0,-2.8283,-2.8243,-2.8224,-2.82,-2.8188,-2.815,-2.8127,-2.8135,-2.811,-2.8081,-2.8049,-2.8008,-2.7976,-2.7906,-2.7897,-2.7859,-2.7865,-2.7812,-2.7859,-2.7858,-2.7863,-2.7864,-2.786,-2.7802,-2.78,-2.7799,-2.7798,0,-2.8157,-2.816,-2.8127,-2.8095,-2.8068,-2.8042,-2.8018,-2.7998,-2.8003,-2.7974,-2.7931,-2.7907,-2.7857,-2.7816,-2.778,-2.7767,-2.7782,-2.7784,-2.777,-2.7766,-2.7767,-2.7764,-2.7926,-2.7787,-2.7788,-2.7789,-2.7789,-2.779,-2.8064,-2.8029,-2.8011,-2.7974,-2.7958,-2.7935,-2.7902,-2.7896,-2.7861,-2.7823,-2.783,-2.7782,-2.776,-2.7713,-2.7697,-2.7659,-2.7677,-2.7658,-2.7652,-2.7647,-2.7641,-2.7775,-2.7652,-2.7653,-2.7653,-2.7653,-2.7653,0,-2.7937,-2.7927,-2.7893,-2.7861,-2.7831,-2.7852,-2.7828,-2.7801,-2.7759,-2.7738,-2.7707,-2.7658,-2.7619,-2.7608,-2.7569,-2.7541,-2.7547,-2.753,-2.7531,-2.7528,-2.7628,-2.7643,-2.7526,-2.7526,-2.7526,-2.7526,-2.7526,-2.7526,-2.7868,-2.781,-2.7812,-2.7746,-2.7736,-2.7691,-2.7675,-2.7655,-2.7638,-2.7583,-2.7552,-2.7545,-2.7528,-2.7489,-2.7453,-2.7451,-2.7435,-2.7415,-2.7415,-2.7508,-2.7521,-2.7533,-2.7547,-2.7412,-2.7412,-2.7318,-2.7317,-2.7317]}]]